Time,TemperatureF,DewpointF,PressureIn,WindDirection,WindDirectionDegrees,WindSpeedMPH,WindSpeedGustMPH,Humidity,HourlyPrecipIn,Conditions,Clouds,dailyrainin,SolarRadiationWatts/m^2,SoftwareType,DateUTC
2013-06-10 00:02:00,72.0,43.0,-100.00,SW,215,10.0,13.0,34,-99.99,,,-99.99,-0.100000,,2013-06-10 06:02:00,
2013-06-10 00:11:00,72.0,43.0,-100.00,SW,218,10.0,13.0,35,-99.99,,,-99.99,-0.100000,,2013-06-10 06:11:00,
2013-06-10 00:22:00,72.0,42.0,-100.00,SW,219,9.0,12.0,34,-99.99,,,-99.99,-0.100000,,2013-06-10 06:22:00,
2013-06-10 00:32:00,72.0,43.0,-100.00,SSW,198,7.0,10.0,35,-99.99,,,-99.99,-0.100000,,2013-06-10 06:32:00,
2013-06-10 00:41:00,65.0,49.0,-100.00,SSE,157,3.0,4.0,55,-99.99,,,-99.99,-0.100000,,2013-06-10 06:41:00,
2013-06-10 00:52:00,64.0,48.0,-100.00,South,179,4.0,5.0,56,-99.99,,,-99.99,-0.100000,,2013-06-10 06:52:00,
2013-06-10 01:02:00,63.0,50.0,-100.00,SSE,161,6.0,7.0,60,-99.99,,,-99.99,-0.100000,,2013-06-10 07:02:00,
2013-06-10 01:11:00,64.0,47.0,-100.00,South,186,7.0,9.0,54,-99.99,,,-99.99,-0.100000,,2013-06-10 07:11:00,
2013-06-10 01:21:00,64.0,48.0,-100.00,South,188,7.0,8.0,55,-99.99,,,-99.99,0.000000,,2013-06-10 07:21:00,
2013-06-10 01:32:00,63.0,50.0,-100.00,SW,218,4.0,4.0,60,-99.99,,,-99.99,-0.100000,,2013-06-10 07:32:00,
2013-06-10 01:42:00,63.0,49.0,-100.00,SSW,200,0.0,1.0,59,-99.99,,,-99.99,-0.100000,,2013-06-10 07:42:00,
2013-06-10 01:52:00,63.0,49.0,-100.00,SSE,156,1.0,2.0,59,-99.99,,,-99.99,-0.100000,,2013-06-10 07:52:00,
2013-06-10 02:02:00,62.0,51.0,-100.00,SE,146,4.0,5.0,66,-99.99,,,-99.99,-0.100000,,2013-06-10 08:02:00,
2013-06-10 02:12:00,63.0,51.0,-100.00,SSW,193,7.0,9.0,64,-99.99,,,-99.99,-0.100000,,2013-06-10 08:12:00,
2013-06-10 02:21:00,65.0,47.0,-100.00,SSW,203,6.0,8.0,52,-99.99,,,-99.99,-0.100000,,2013-06-10 08:21:00,
2013-06-10 02:32:00,67.0,46.0,-100.00,SSW,209,7.0,9.0,46,-99.99,,,-99.99,-0.100000,,2013-06-10 08:32:00,
2013-06-10 02:41:00,66.0,46.0,-100.00,SSW,204,6.0,7.0,49,-99.99,,,-99.99,-0.100000,,2013-06-10 08:41:00,
2013-06-10 02:52:00,62.0,50.0,-100.00,SSW,206,3.0,4.0,63,-99.99,,,-99.99,0.000000,,2013-06-10 08:52:00,
2013-06-10 03:02:00,60.0,51.0,-100.00,West,260,2.0,3.0,71,-99.99,,,-99.99,-0.100000,,2013-06-10 09:02:00,
2013-06-10 03:11:00,60.0,50.0,-100.00,West,281,4.0,5.0,69,-99.99,,,-99.99,-0.100000,,2013-06-10 09:11:00,
2013-06-10 03:32:00,59.0,50.0,-100.00,NW,305,1.0,2.0,73,-99.99,,,-99.99,-0.100000,,2013-06-10 09:32:00,
2013-06-10 03:42:00,57.0,50.0,-100.00,NNE,15,3.0,4.0,76,-99.99,,,-99.99,-0.100000,,2013-06-10 09:42:00,
2013-06-10 03:53:00,58.0,50.0,-100.00,SW,218,4.0,6.0,73,-99.99,,,-99.99,0.000000,,2013-06-10 09:53:00,
2013-06-10 04:02:00,58.0,49.0,-100.00,SSW,194,5.0,7.0,71,-99.99,,,-99.99,-0.100000,,2013-06-10 10:02:00,
2013-06-10 04:12:00,59.0,47.0,-100.00,SW,220,8.0,11.0,63,-99.99,,,-99.99,-0.100000,,2013-06-10 10:12:00,
2013-06-10 04:22:00,66.0,44.0,-100.00,SW,215,9.0,12.0,44,-99.99,,,-99.99,-0.100000,,2013-06-10 10:22:00,
2013-06-10 04:33:00,65.0,44.0,-100.00,SSW,213,10.0,13.0,45,-99.99,,,-99.99,-0.100000,,2013-06-10 10:33:00,
2013-06-10 04:42:00,65.0,44.0,-100.00,SSW,209,11.0,14.0,45,-99.99,,,-99.99,-0.100000,,2013-06-10 10:42:00,
2013-06-10 04:52:00,65.0,44.0,-100.00,SSW,207,11.0,13.0,45,-99.99,,,-99.99,-0.100000,,2013-06-10 10:52:00,
2013-06-10 05:02:00,63.0,45.0,-100.00,SSW,198,12.0,15.0,50,-99.99,,,-99.99,0.000000,,2013-06-10 11:02:00,
2013-06-10 05:11:00,62.0,45.0,-100.00,SSW,196,14.0,16.0,54,-99.99,,,-99.99,-0.100000,,2013-06-10 11:11:00,
2013-06-10 05:22:00,61.0,45.0,-100.00,SSW,196,14.0,17.0,55,-99.99,,,-99.99,0.100000,,2013-06-10 11:22:00,
2013-06-10 05:32:00,62.0,45.0,-100.00,SSW,199,13.0,18.0,52,-99.99,,,-99.99,-0.100000,,2013-06-10 11:32:00,
2013-06-10 05:41:00,63.0,45.0,-100.00,SSW,196,12.0,13.0,51,-99.99,,,-99.99,0.000000,,2013-06-10 11:41:00,
2013-06-10 05:52:00,64.0,44.0,-100.00,SSW,206,10.0,13.0,47,-99.99,,,-99.99,0.100000,,2013-06-10 11:52:00,
2013-06-10 06:02:00,64.0,44.0,-100.00,SW,235,8.0,11.0,47,-99.99,,,-99.99,1.100000,,2013-06-10 12:02:00,
2013-06-10 06:11:00,59.0,48.0,-100.00,WSW,252,7.0,8.0,67,-99.99,,,-99.99,1.300000,,2013-06-10 12:11:00,
2013-06-10 06:22:00,58.0,48.0,-100.00,WSW,238,6.0,7.0,67,-99.99,,,-99.99,4.300000,,2013-06-10 12:22:00,
2013-06-10 06:32:00,60.0,47.0,-100.00,SW,220,6.0,9.0,60,-99.99,,,-99.99,13.400000,,2013-06-10 12:32:00,
2013-06-10 06:42:00,62.0,46.0,-100.00,SSW,205,8.0,10.0,54,-99.99,,,-99.99,15.200000,,2013-06-10 12:42:00,
2013-06-10 06:52:00,61.0,46.0,-100.00,SW,216,8.0,11.0,57,-99.99,,,-99.99,24.000000,,2013-06-10 12:52:00,
2013-06-10 07:02:00,63.0,46.0,-100.00,SW,215,8.0,10.0,54,-99.99,,,-99.99,33.799999,,2013-06-10 13:02:00,
2013-06-10 07:11:00,63.0,46.0,-100.00,SW,223,10.0,14.0,54,-99.99,,,-99.99,37.400002,,2013-06-10 13:11:00,
2013-06-10 07:21:00,64.0,44.0,-100.00,SW,224,10.0,14.0,49,-99.99,,,-99.99,34.400002,,2013-06-10 13:21:00,
2013-06-10 07:32:00,65.0,44.0,-100.00,SW,229,9.0,13.0,46,-99.99,,,-99.99,64.800003,,2013-06-10 13:32:00,
2013-06-10 07:41:00,65.0,44.0,-100.00,SW,225,11.0,14.0,45,-99.99,,,-99.99,210.800003,,2013-06-10 13:41:00,
2013-06-10 07:52:00,67.0,44.0,-100.00,SSW,207,13.0,17.0,43,-99.99,,,-99.99,242.699997,,2013-06-10 13:52:00,
2013-06-10 08:02:00,69.0,44.0,-100.00,SSW,210,11.0,15.0,41,-99.99,,,-99.99,272.399994,,2013-06-10 14:02:00,
2013-06-10 08:11:00,69.0,45.0,-100.00,SW,219,10.0,13.0,41,-99.99,,,-99.99,302.299988,,2013-06-10 14:11:00,
2013-06-10 08:22:00,70.0,45.0,-100.00,SW,216,9.0,14.0,42,-99.99,,,-99.99,334.899994,,2013-06-10 14:22:00,
2013-06-10 08:32:00,69.0,47.0,-100.00,SW,233,9.0,12.0,45,-99.99,,,-99.99,372.600006,,2013-06-10 14:32:00,
2013-06-10 08:42:00,70.0,47.0,-100.00,SW,222,9.0,11.0,42,-99.99,,,-99.99,406.700012,,2013-06-10 14:42:00,
2013-06-10 08:52:00,71.0,46.0,-100.00,SW,220,8.0,11.0,41,-99.99,,,-99.99,440.600006,,2013-06-10 14:52:00,
2013-06-10 09:02:00,72.0,46.0,-100.00,SW,220,9.0,12.0,40,-99.99,,,-99.99,477.799988,,2013-06-10 15:02:00,
2013-06-10 09:11:00,72.0,49.0,-100.00,WSW,241,9.0,13.0,44,-99.99,,,-99.99,512.400024,,2013-06-10 15:11:00,
2013-06-10 09:32:00,72.0,50.0,-100.00,WSW,242,9.0,15.0,45,-99.99,,,-99.99,565.900024,,2013-06-10 15:32:00,
2013-06-10 09:43:00,73.0,52.0,-100.00,WSW,256,9.0,13.0,47,-99.99,,,-99.99,599.900024,,2013-06-10 15:43:00,
2013-06-10 09:53:00,75.0,52.0,-100.00,West,263,11.0,13.0,45,-99.99,,,-99.99,654.299988,,2013-06-10 15:53:00,
2013-06-10 10:02:00,76.0,48.0,-100.00,WSW,256,12.0,16.0,36,-99.99,,,-99.99,736.299988,,2013-06-10 16:02:00,
2013-06-10 10:12:00,77.0,46.0,-100.00,WSW,258,12.0,15.0,33,-99.99,,,-99.99,687.700012,,2013-06-10 16:12:00,
2013-06-10 10:22:00,78.0,48.0,-100.00,WSW,252,12.0,14.0,35,-99.99,,,-99.99,690.400024,,2013-06-10 16:22:00,
2013-06-10 10:33:00,78.0,49.0,-100.00,WSW,253,9.0,11.0,36,-99.99,,,-99.99,667.400024,,2013-06-10 16:33:00,
2013-06-10 10:42:00,79.0,48.0,-100.00,SW,232,9.0,11.0,33,-99.99,,,-99.99,702.400024,,2013-06-10 16:42:00,
2013-06-10 10:52:00,79.0,45.0,-100.00,WSW,238,10.0,13.0,29,-99.99,,,-99.99,455.899994,,2013-06-10 16:52:00,
2013-06-10 11:03:00,79.0,48.0,-100.00,SW,218,9.0,13.0,33,-99.99,,,-99.99,662.700012,,2013-06-10 17:03:00,
2013-06-10 11:14:00,80.0,48.0,-100.00,SSW,207,9.0,13.0,32,-99.99,,,-99.99,878.000000,,2013-06-10 17:14:00,
2013-06-10 11:26:00,80.0,49.0,-100.00,SW,236,8.0,12.0,34,-99.99,,,-99.99,916.000000,,2013-06-10 17:26:00,
2013-06-10 11:38:00,81.0,46.0,-100.00,SSW,209,11.0,13.0,29,-99.99,,,-99.99,810.000000,,2013-06-10 17:38:00,
2013-06-10 11:48:00,81.0,47.0,-100.00,SW,214,10.0,14.0,29,-99.99,,,-99.99,771.700012,,2013-06-10 17:48:00,
2013-06-10 11:57:00,81.0,46.0,-100.00,SW,227,10.0,13.0,29,-99.99,,,-99.99,899.000000,,2013-06-10 17:57:00,
2013-06-10 12:07:00,81.0,46.0,-100.00,SW,226,11.0,15.0,29,-99.99,,,-99.99,946.000000,,2013-06-10 18:07:00,
2013-06-10 12:14:00,81.0,46.0,-100.00,SW,222,10.0,15.0,29,-99.99,,,-99.99,959.000000,,2013-06-10 18:14:00,
2013-06-10 12:24:00,81.0,47.0,-100.00,WSW,243,10.0,14.0,30,-99.99,,,-99.99,982.000000,,2013-06-10 18:24:00,
2013-06-10 12:34:00,82.0,48.0,-100.00,WSW,250,11.0,12.0,30,-99.99,,,-99.99,1110.000000,,2013-06-10 18:34:00,
2013-06-10 12:47:00,82.0,47.0,-100.00,WSW,242,9.0,12.0,30,-99.99,,,-99.99,990.000000,,2013-06-10 18:47:00,
2013-06-10 12:55:00,83.0,47.0,-100.00,SW,226,9.0,13.0,29,-99.99,,,-99.99,927.000000,,2013-06-10 18:55:00,
2013-06-10 13:02:00,83.0,48.0,-100.00,SW,221,8.0,11.0,29,-99.99,,,-99.99,1040.000000,,2013-06-10 19:02:00,
2013-06-10 13:22:00,83.0,48.0,-100.00,SW,228,8.0,11.0,29,-99.99,,,-99.99,703.299988,,2013-06-10 19:22:00,
2013-06-10 13:32:00,83.0,47.0,-100.00,SW,223,9.0,12.0,28,-99.99,,,-99.99,923.000000,,2013-06-10 19:32:00,
2013-06-10 13:42:00,83.0,48.0,-100.00,SW,233,9.0,14.0,29,-99.99,,,-99.99,1028.000000,,2013-06-10 19:42:00,
2013-06-10 13:52:00,83.0,49.0,-100.00,WSW,257,10.0,12.0,30,-99.99,,,-99.99,835.000000,,2013-06-10 19:52:00,
2013-06-10 14:02:00,84.0,51.0,-100.00,West,264,9.0,12.0,32,-99.99,,,-99.99,1067.000000,,2013-06-10 20:02:00,
2013-06-10 14:21:00,86.0,49.0,-100.00,WSW,258,8.0,12.0,28,-99.99,,,-99.99,1199.000000,,2013-06-10 20:21:00,
2013-06-10 14:32:00,88.0,44.0,-100.00,SW,227,9.0,12.0,22,-99.99,,,-99.99,1123.000000,,2013-06-10 20:32:00,
2013-06-10 14:42:00,87.0,46.0,-100.00,WSW,246,9.0,14.0,23,-99.99,,,-99.99,1053.000000,,2013-06-10 20:42:00,
2013-06-10 14:52:00,87.0,47.0,-100.00,WSW,258,9.0,14.0,24,-99.99,,,-99.99,941.000000,,2013-06-10 20:52:00,
2013-06-10 15:02:00,88.0,45.0,-100.00,SW,231,8.0,12.0,22,-99.99,,,-99.99,939.000000,,2013-06-10 21:02:00,
2013-06-10 15:11:00,87.0,48.0,-100.00,West,261,8.0,12.0,26,-99.99,,,-99.99,837.000000,,2013-06-10 21:11:00,
2013-06-10 15:22:00,87.0,46.0,-100.00,WSW,243,6.0,10.0,23,-99.99,,,-99.99,477.799988,,2013-06-10 21:22:00,
2013-06-10 15:33:00,89.0,44.0,-100.00,South,186,5.0,10.0,21,-99.99,,,-99.99,1036.000000,,2013-06-10 21:33:00,
2013-06-10 15:42:00,88.0,45.0,-100.00,SW,234,5.0,8.0,23,-99.99,,,-99.99,678.400024,,2013-06-10 21:42:00,
2013-06-10 15:53:00,89.0,45.0,-100.00,South,182,6.0,11.0,21,-99.99,,,-99.99,482.200012,,2013-06-10 21:53:00,
2013-06-10 16:02:00,88.0,48.0,-100.00,West,259,7.0,11.0,24,-99.99,,,-99.99,550.500000,,2013-06-10 22:02:00,
2013-06-10 16:12:00,87.0,47.0,-100.00,WSW,238,6.0,8.0,24,-99.99,,,-99.99,826.000000,,2013-06-10 22:12:00,
2013-06-10 16:22:00,88.0,47.0,-100.00,WSW,258,5.0,7.0,24,-99.99,,,-99.99,549.900024,,2013-06-10 22:22:00,
2013-06-10 16:33:00,87.0,49.0,-100.00,WSW,250,6.0,8.0,26,-99.99,,,-99.99,600.000000,,2013-06-10 22:33:00,
2013-06-10 16:42:00,88.0,48.0,-100.00,WSW,258,5.0,6.0,24,-99.99,,,-99.99,788.099976,,2013-06-10 22:42:00,
2013-06-10 16:52:00,90.0,44.0,-100.00,SW,216,7.0,13.0,20,-99.99,,,-99.99,719.000000,,2013-06-10 22:52:00,
2013-06-10 17:02:00,90.0,42.0,-100.00,South,187,8.0,15.0,19,-99.99,,,-99.99,849.000000,,2013-06-10 23:02:00,
2013-06-10 17:11:00,91.0,44.0,-100.00,South,187,11.0,14.0,19,-99.99,,,-99.99,783.200012,,2013-06-10 23:11:00,
2013-06-10 17:22:00,92.0,32.0,-100.00,South,189,18.0,24.0,12,-99.99,,,-99.99,596.000000,,2013-06-10 23:22:00,
2013-06-10 17:32:00,91.0,35.0,-100.00,South,176,18.0,24.0,13,-99.99,,,-99.99,745.500000,,2013-06-10 23:32:00,
2013-06-10 17:42:00,90.0,36.0,-100.00,South,181,20.0,31.0,14,-99.99,,,-99.99,676.500000,,2013-06-10 23:42:00,
2013-06-10 17:52:00,91.0,32.0,-100.00,South,183,24.0,30.0,12,-99.99,,,-99.99,637.799988,,2013-06-10 23:52:00,
2013-06-10 18:01:00,92.0,32.0,-100.00,South,191,20.0,27.0,12,-99.99,,,-99.99,589.900024,,2013-06-11 00:01:00,
2013-06-10 18:11:00,92.0,33.0,-100.00,South,188,17.0,24.0,12,-99.99,,,-99.99,559.000000,,2013-06-11 00:11:00,
2013-06-10 18:21:00,91.0,36.0,-100.00,South,182,15.0,21.0,14,-99.99,,,-99.99,523.799988,,2013-06-11 00:21:00,
2013-06-10 18:32:00,91.0,31.0,-100.00,South,187,16.0,24.0,11,-99.99,,,-99.99,492.799988,,2013-06-11 00:32:00,
2013-06-10 18:41:00,91.0,33.0,-100.00,South,183,15.0,20.0,13,-99.99,,,-99.99,459.399994,,2013-06-11 00:41:00,
2013-06-10 18:51:00,89.0,35.0,-100.00,South,180,18.0,28.0,15,-99.99,,,-99.99,424.500000,,2013-06-11 00:51:00,
2013-06-10 19:02:00,88.0,34.0,-100.00,South,179,19.0,25.0,14,-99.99,,,-99.99,392.399994,,2013-06-11 01:02:00,
2013-06-10 19:11:00,87.0,32.0,-100.00,South,182,20.0,27.0,14,-99.99,,,-99.99,356.799988,,2013-06-11 01:11:00,
2013-06-10 19:21:00,88.0,32.0,-100.00,South,178,18.0,23.0,13,-99.99,,,-99.99,323.299988,,2013-06-11 01:21:00,
2013-06-10 19:32:00,86.0,34.0,-100.00,South,176,17.0,23.0,15,-99.99,,,-99.99,296.000000,,2013-06-11 01:32:00,
2013-06-10 19:42:00,85.0,33.0,-100.00,South,177,18.0,24.0,15,-99.99,,,-99.99,261.299988,,2013-06-11 01:42:00,
2013-06-10 19:52:00,85.0,32.0,-100.00,South,178,17.0,22.0,14,-99.99,,,-99.99,231.300003,,2013-06-11 01:52:00,
2013-06-10 20:02:00,85.0,33.0,-100.00,South,182,16.0,22.0,15,-99.99,,,-99.99,201.199997,,2013-06-11 02:02:00,
2013-06-10 20:11:00,84.0,33.0,-100.00,South,183,15.0,20.0,16,-99.99,,,-99.99,170.100006,,2013-06-11 02:11:00,
2013-06-10 20:21:00,83.0,35.0,-100.00,South,184,14.0,17.0,18,-99.99,,,-99.99,144.600006,,2013-06-11 02:21:00,
2013-06-10 20:31:00,82.0,34.0,-100.00,South,186,12.0,16.0,17,-99.99,,,-99.99,117.500000,,2013-06-11 02:31:00,
2013-06-10 20:41:00,83.0,31.0,-100.00,South,191,11.0,15.0,15,-99.99,,,-99.99,85.900002,,2013-06-11 02:41:00,
2013-06-10 20:52:00,81.0,33.0,-100.00,South,186,12.0,16.0,17,-99.99,,,-99.99,56.900002,,2013-06-11 02:52:00,
2013-06-10 21:02:00,81.0,33.0,-100.00,South,185,11.0,12.0,18,-99.99,,,-99.99,44.400002,,2013-06-11 03:02:00,
2013-06-10 21:11:00,78.0,36.0,-100.00,South,183,11.0,13.0,21,-99.99,,,-99.99,15.600000,,2013-06-11 03:11:00,
2013-06-10 21:21:00,77.0,36.0,-100.00,South,187,11.0,13.0,22,-99.99,,,-99.99,5.900000,,2013-06-11 03:21:00,
2013-06-10 21:32:00,77.0,34.0,-100.00,SSW,194,10.0,12.0,21,-99.99,,,-99.99,1.900000,,2013-06-11 03:32:00,
2013-06-10 21:42:00,75.0,35.0,-100.00,SSW,195,11.0,13.0,23,-99.99,,,-99.99,0.600000,,2013-06-11 03:42:00,
2013-06-10 21:53:00,76.0,34.0,-100.00,SSW,200,9.0,13.0,22,-99.99,,,-99.99,0.000000,,2013-06-11 03:53:00,
2013-06-10 22:02:00,76.0,32.0,-100.00,SSW,202,9.0,12.0,19,-99.99,,,-99.99,-0.100000,,2013-06-11 04:02:00,
2013-06-10 22:12:00,74.0,37.0,-100.00,WSW,254,11.0,14.0,26,-99.99,,,-99.99,-0.100000,,2013-06-11 04:12:00,
2013-06-10 22:22:00,71.0,36.0,-100.00,WSW,240,9.0,12.0,27,-99.99,,,-99.99,-0.100000,,2013-06-11 04:22:00,
2013-06-10 22:33:00,73.0,31.0,-100.00,WSW,238,11.0,15.0,21,-99.99,,,-99.99,-0.100000,,2013-06-11 04:33:00,
2013-06-10 22:42:00,74.0,30.0,-100.00,SW,235,10.0,15.0,20,-99.99,,,-99.99,-0.100000,,2013-06-11 04:42:00,
2013-06-10 22:52:00,77.0,25.0,-100.00,SW,228,13.0,20.0,14,-99.99,,,-99.99,-0.100000,,2013-06-11 04:52:00,
2013-06-10 23:02:00,78.0,24.0,-100.00,SW,216,15.0,20.0,13,-99.99,,,-99.99,-0.100000,,2013-06-11 05:02:00,
2013-06-10 23:11:00,77.0,25.0,-100.00,SSW,211,12.0,16.0,14,-99.99,,,-99.99,-0.100000,,2013-06-11 05:11:00,
2013-06-10 23:22:00,78.0,23.0,-100.00,SSW,207,13.0,17.0,13,-99.99,,,-99.99,-0.100000,,2013-06-11 05:22:00,
2013-06-10 23:32:00,78.0,24.0,-100.00,SSW,212,13.0,17.0,13,-99.99,,,-99.99,-0.100000,,2013-06-11 05:32:00,
2013-06-10 23:41:00,77.0,25.0,-100.00,SSW,211,11.0,16.0,14,-99.99,,,-99.99,-0.100000,,2013-06-11 05:41:00,
2013-06-10 23:52:00,77.0,24.0,-100.00,SSW,206,15.0,20.0,13,-99.99,,,-99.99,-0.100000,,2013-06-11 05:52:00,